iso_date,Year,Hour,Min,DOY,POS_DOY,Lat,Lon,BP,Ts,Ta,has_bp,has_ts,has_ta,BuoyID,Buoy_Type,Buoy_Owner,Logistics,Hemisphere
2021-07-06T16:00:02Z,2021,16,0,187.6667,187.6667,63.631,-17.825,1004.9,19.96,-999.0,yes,yes,no,300234068445770,BD2GHI,AOML,UNKNOWN,North
2021-07-06T16:59:57Z,2021,17,0,187.7083,187.7083,63.631,-17.825,1005.0,18.0,-999.0,yes,yes,no,300234068445770,BD2GHI,AOML,UNKNOWN,North
2021-07-06T18:00:00Z,2021,18,0,187.75,187.75,63.631,-17.824,1004.9,16.47,-999.0,yes,yes,no,300234068445770,BD2GHI,AOML,UNKNOWN,North
2021-07-06T19:00:02Z,2021,19,0,187.7917,187.7917,63.631,-17.824,1004.8,16.39,-999.0,yes,yes,no,300234068445770,BD2GHI,AOML,UNKNOWN,North
2021-07-06T19:59:57Z,2021,20,0,187.8333,187.8333,63.632,-17.825,1004.7,13.55,-999.0,yes,yes,no,300234068445770,BD2GHI,AOML,UNKNOWN,North
2021-07-06T21:00:00Z,2021,21,0,187.875,187.875,63.631,-17.825,1005.0,13.98,-999.0,yes,yes,no,300234068445770,BD2GHI,AOML,UNKNOWN,North
2021-07-06T22:00:02Z,2021,22,0,187.9167,187.9167,63.632,-17.825,1005.2,12.1,-999.0,yes,yes,no,300234068445770,BD2GHI,AOML,UNKNOWN,North
2021-07-06T22:59:57Z,2021,23,0,187.9583,187.9583,63.632,-17.825,1005.1,11.73,-999.0,yes,yes,no,300234068445770,BD2GHI,AOML,UNKNOWN,North
2021-07-07T00:00:00Z,2021,0,0,188.0,188.0,63.632,-17.825,1005.1,10.72,-999.0,yes,yes,no,300234068445770,BD2GHI,AOML,UNKNOWN,North
2021-07-07T01:00:02Z,2021,1,0,188.0417,188.0417,63.632,-17.826,1004.6,9.69,-999.0,yes,yes,no,300234068445770,BD2GHI,AOML,UNKNOWN,North
2021-07-07T01:59:57Z,2021,2,0,188.0833,188.0833,63.631,-17.825,1004.8,8.85,-999.0,yes,yes,no,300234068445770,BD2GHI,AOML,UNKNOWN,North
2021-07-07T03:00:00Z,2021,3,0,188.125,188.125,63.632,-17.825,1004.9,8.04,-999.0,yes,yes,no,300234068445770,BD2GHI,AOML,UNKNOWN,North
2021-07-07T04:00:02Z,2021,4,0,188.1667,188.1667,63.632,-17.825,1004.9,7.75,-999.0,yes,yes,no,300234068445770,BD2GHI,AOML,UNKNOWN,North
2021-07-07T04:59:57Z,2021,5,0,188.2083,188.2083,63.632,-17.825,1004.9,8.98,-999.0,yes,yes,no,300234068445770,BD2GHI,AOML,UNKNOWN,North
2021-07-07T06:00:00Z,2021,6,0,188.25,188.25,63.632,-17.825,1005.1,11.59,-999.0,yes,yes,no,300234068445770,BD2GHI,AOML,UNKNOWN,North
2021-07-07T07:00:02Z,2021,7,0,188.2917,188.2917,63.633,-17.824,1005.4,14.88,-999.0,yes,yes,no,300234068445770,BD2GHI,AOML,UNKNOWN,North
2021-07-07T07:59:57Z,2021,8,0,188.3333,188.3333,63.633,-17.827,1005.7,18.24,-999.0,yes,yes,no,300234068445770,BD2GHI,AOML,UNKNOWN,North
2021-07-07T09:00:00Z,2021,9,0,188.375,188.375,63.633,-17.827,1005.7,20.84,-999.0,yes,yes,no,300234068445770,BD2GHI,AOML,UNKNOWN,North
2021-07-07T10:00:02Z,2021,10,0,188.4167,188.4167,63.631,-17.824,1005.9,23.04,-999.0,yes,yes,no,300234068445770,BD2GHI,AOML,UNKNOWN,North
2021-07-07T10:59:57Z,2021,11,0,188.4583,188.4583,63.631,-17.825,1006.4,20.16,-999.0,yes,yes,no,300234068445770,BD2GHI,AOML,UNKNOWN,North
2021-07-07T12:00:00Z,2021,12,0,188.5,188.5,63.631,-17.823,1006.5,20.5,-999.0,yes,yes,no,300234068445770,BD2GHI,AOML,UNKNOWN,North
2021-07-07T13:00:02Z,2021,13,0,188.5417,188.5417,63.631,-17.824,1006.9,20.31,-999.0,yes,yes,no,300234068445770,BD2GHI,AOML,UNKNOWN,North
2021-07-07T13:59:57Z,2021,14,0,188.5833,188.5833,63.632,-17.824,1007.2,20.15,-999.0,yes,yes,no,300234068445770,BD2GHI,AOML,UNKNOWN,North
2021-07-07T15:00:00Z,2021,15,0,188.625,188.625,63.632,-17.825,1007.3,19.0,-999.0,yes,yes,no,300234068445770,BD2GHI,AOML,UNKNOWN,North
2021-07-07T16:00:02Z,2021,16,0,188.6667,188.6667,63.632,-17.825,1007.3,17.97,-999.0,yes,yes,no,300234068445770,BD2GHI,AOML,UNKNOWN,North
2021-07-07T16:59:57Z,2021,17,0,188.7083,188.7083,63.632,-17.825,1007.3,17.58,-999.0,yes,yes,no,300234068445770,BD2GHI,AOML,UNKNOWN,North
2021-07-07T18:00:00Z,2021,18,0,188.75,188.75,63.631,-17.825,1007.4,19.01,-999.0,yes,yes,no,300234068445770,BD2GHI,AOML,UNKNOWN,North
2021-07-07T19:00:02Z,2021,19,0,188.7917,188.7917,63.632,-17.825,1007.6,18.76,-999.0,yes,yes,no,300234068445770,BD2GHI,AOML,UNKNOWN,North
2021-07-07T19:59:57Z,2021,20,0,188.8333,188.8333,63.632,-17.825,1007.8,17.15,-999.0,yes,yes,no,300234068445770,BD2GHI,AOML,UNKNOWN,North
2021-07-07T21:00:00Z,2021,21,0,188.875,188.875,63.632,-17.825,1008.1,14.0,-999.0,yes,yes,no,300234068445770,BD2GHI,AOML,UNKNOWN,North
2021-07-07T22:00:02Z,2021,22,0,188.9167,188.9167,63.632,-17.825,1008.3,13.72,-999.0,yes,yes,no,300234068445770,BD2GHI,AOML,UNKNOWN,North
2021-07-07T22:59:57Z,2021,23,0,188.9583,188.9583,63.632,-17.825,1009.1,11.61,-999.0,yes,yes,no,300234068445770,BD2GHI,AOML,UNKNOWN,North
2021-07-08T00:00:00Z,2021,0,0,189.0,189.0,63.632,-17.825,1009.3,10.1,-999.0,yes,yes,no,300234068445770,BD2GHI,AOML,UNKNOWN,North
2021-07-08T01:00:02Z,2021,1,0,189.0417,189.0417,63.632,-17.826,1009.6,9.43,-999.0,yes,yes,no,300234068445770,BD2GHI,AOML,UNKNOWN,North
2021-07-08T01:59:57Z,2021,2,0,189.0833,189.0833,63.631,-17.827,1009.6,9.15,-999.0,yes,yes,no,300234068445770,BD2GHI,AOML,UNKNOWN,North
2021-07-08T03:00:00Z,2021,3,0,189.125,189.125,63.632,-17.825,1009.6,9.06,-999.0,yes,yes,no,300234068445770,BD2GHI,AOML,UNKNOWN,North
2021-07-08T04:00:02Z,2021,4,0,189.1667,189.1667,63.632,-17.825,1009.6,9.15,-999.0,yes,yes,no,300234068445770,BD2GHI,AOML,UNKNOWN,North
2021-07-08T04:59:57Z,2021,5,0,189.2083,189.2083,63.632,-17.825,1009.6,10.15,-999.0,yes,yes,no,300234068445770,BD2GHI,AOML,UNKNOWN,North
2021-07-08T06:00:00Z,2021,6,0,189.25,189.25,63.631,-17.826,1009.7,12.23,-999.0,yes,yes,no,300234068445770,BD2GHI,AOML,UNKNOWN,North
2021-07-08T07:00:02Z,2021,7,0,189.2917,189.2917,63.632,-17.825,1009.9,14.32,-999.0,yes,yes,no,300234068445770,BD2GHI,AOML,UNKNOWN,North
2021-07-08T07:59:57Z,2021,8,0,189.3333,189.3333,63.632,-17.825,1010.0,17.42,-999.0,yes,yes,no,300234068445770,BD2GHI,AOML,UNKNOWN,North
2021-07-08T09:00:00Z,2021,9,0,189.375,189.375,63.632,-17.825,1010.4,19.76,-999.0,yes,yes,no,300234068445770,BD2GHI,AOML,UNKNOWN,North
2021-07-08T10:00:02Z,2021,10,0,189.4167,189.4167,63.632,-17.825,1010.4,21.86,-999.0,yes,yes,no,300234068445770,BD2GHI,AOML,UNKNOWN,North
2021-07-08T10:59:57Z,2021,11,0,189.4583,189.4583,63.63,-17.827,1010.6,22.47,-999.0,yes,yes,no,300234068445770,BD2GHI,AOML,UNKNOWN,North
2021-07-08T12:00:00Z,2021,12,0,189.5,189.5,63.632,-17.825,1010.6,23.12,-999.0,yes,yes,no,300234068445770,BD2GHI,AOML,UNKNOWN,North
2021-07-08T13:00:02Z,2021,13,0,189.5417,189.5417,63.632,-17.825,1010.7,21.94,-999.0,yes,yes,no,300234068445770,BD2GHI,AOML,UNKNOWN,North
2021-07-08T13:59:57Z,2021,14,0,189.5833,189.5833,63.632,-17.825,1010.7,22.2,-999.0,yes,yes,no,300234068445770,BD2GHI,AOML,UNKNOWN,North
2021-07-08T15:00:00Z,2021,15,0,189.625,189.625,63.631,-17.824,1010.7,22.6,-999.0,yes,yes,no,300234068445770,BD2GHI,AOML,UNKNOWN,North
2021-07-08T16:00:02Z,2021,16,0,189.6667,189.6667,63.631,-17.825,1011.2,21.48,-999.0,yes,yes,no,300234068445770,BD2GHI,AOML,UNKNOWN,North
2021-07-08T16:59:57Z,2021,17,0,189.7083,189.7083,63.632,-17.825,1011.2,20.75,-999.0,yes,yes,no,300234068445770,BD2GHI,AOML,UNKNOWN,North
2021-07-08T18:00:00Z,2021,18,0,189.75,189.75,63.631,-17.823,1011.6,19.67,-999.0,yes,yes,no,300234068445770,BD2GHI,AOML,UNKNOWN,North
2021-07-08T19:00:02Z,2021,19,0,189.7917,189.7917,63.631,-17.825,1012.2,17.98,-999.0,yes,yes,no,300234068445770,BD2GHI,AOML,UNKNOWN,North
2021-07-08T19:59:57Z,2021,20,0,189.8333,189.8333,63.631,-17.825,1012.6,16.32,-999.0,yes,yes,no,300234068445770,BD2GHI,AOML,UNKNOWN,North
2021-07-08T21:00:00Z,2021,21,0,189.875,189.875,63.632,-17.825,1013.1,14.96,-999.0,yes,yes,no,300234068445770,BD2GHI,AOML,UNKNOWN,North
2021-07-08T22:00:02Z,2021,22,0,189.9167,189.9167,63.631,-17.825,1013.7,13.53,-999.0,yes,yes,no,300234068445770,BD2GHI,AOML,UNKNOWN,North
2021-07-08T22:59:57Z,2021,23,0,189.9583,189.9583,63.632,-17.825,1014.4,12.3,-999.0,yes,yes,no,300234068445770,BD2GHI,AOML,UNKNOWN,North
2021-07-09T00:00:00Z,2021,0,0,190.0,190.0,63.632,-17.825,1014.7,11.69,-999.0,yes,yes,no,300234068445770,BD2GHI,AOML,UNKNOWN,North
2021-07-09T01:00:02Z,2021,1,0,190.0417,190.0417,63.632,-17.825,1015.2,10.97,-999.0,yes,yes,no,300234068445770,BD2GHI,AOML,UNKNOWN,North
2021-07-09T01:59:57Z,2021,2,0,190.0833,190.0833,63.631,-17.827,1015.3,10.46,-999.0,yes,yes,no,300234068445770,BD2GHI,AOML,UNKNOWN,North
2021-07-09T03:00:00Z,2021,3,0,190.125,190.125,63.632,-17.825,1015.2,10.26,-999.0,yes,yes,no,300234068445770,BD2GHI,AOML,UNKNOWN,North
2021-07-09T04:00:02Z,2021,4,0,190.1667,190.1667,63.632,-17.825,1015.1,10.74,-999.0,yes,yes,no,300234068445770,BD2GHI,AOML,UNKNOWN,North
2021-07-09T04:59:57Z,2021,5,0,190.2083,190.2083,63.632,-17.825,1015.2,11.23,-999.0,yes,yes,no,300234068445770,BD2GHI,AOML,UNKNOWN,North
2021-07-09T06:00:00Z,2021,6,0,190.25,190.25,63.631,-17.826,1015.4,13.49,-999.0,yes,yes,no,300234068445770,BD2GHI,AOML,UNKNOWN,North
2021-07-09T07:00:02Z,2021,7,0,190.2917,190.2917,63.632,-17.825,1015.8,14.2,-999.0,yes,yes,no,300234068445770,BD2GHI,AOML,UNKNOWN,North
2021-07-09T07:59:57Z,2021,8,0,190.3333,190.3333,63.631,-17.825,1015.7,16.96,-999.0,yes,yes,no,300234068445770,BD2GHI,AOML,UNKNOWN,North
2021-07-09T09:00:00Z,2021,9,0,190.375,190.375,63.632,-17.825,1016.0,18.81,-999.0,yes,yes,no,300234068445770,BD2GHI,AOML,UNKNOWN,North
2021-07-09T10:00:02Z,2021,10,0,190.4167,190.4167,63.632,-17.825,1016.6,17.27,-999.0,yes,yes,no,300234068445770,BD2GHI,AOML,UNKNOWN,North
2021-07-09T12:00:00Z,2021,12,0,190.5,190.5,63.631,-17.824,1016.8,18.54,-999.0,yes,yes,no,300234068445770,BD2GHI,AOML,UNKNOWN,North
2021-07-09T13:00:02Z,2021,13,0,190.5417,190.5417,63.63,-17.823,1016.8,18.94,-999.0,yes,yes,no,300234068445770,BD2GHI,AOML,UNKNOWN,North
2021-07-09T13:59:57Z,2021,14,0,190.5833,190.5833,63.632,-17.825,1016.9,19.49,-999.0,yes,yes,no,300234068445770,BD2GHI,AOML,UNKNOWN,North
2021-07-09T15:00:00Z,2021,15,0,190.625,190.625,63.632,-17.825,1016.8,17.53,-999.0,yes,yes,no,300234068445770,BD2GHI,AOML,UNKNOWN,North
2021-07-09T16:00:02Z,2021,16,0,190.6667,190.6667,63.632,-17.825,1016.7,17.0,-999.0,yes,yes,no,300234068445770,BD2GHI,AOML,UNKNOWN,North
2021-07-09T16:59:57Z,2021,17,0,190.7083,190.7083,63.632,-17.825,1016.8,15.98,-999.0,yes,yes,no,300234068445770,BD2GHI,AOML,UNKNOWN,North
2021-07-09T18:00:00Z,2021,18,0,190.75,190.75,63.632,-17.825,1016.5,16.6,-999.0,yes,yes,no,300234068445770,BD2GHI,AOML,UNKNOWN,North
2021-07-09T19:00:02Z,2021,19,0,190.7917,190.7917,63.632,-17.825,1016.7,14.9,-999.0,yes,yes,no,300234068445770,BD2GHI,AOML,UNKNOWN,North
2021-07-09T19:59:57Z,2021,20,0,190.8333,190.8333,63.632,-17.825,1017.1,14.21,-999.0,yes,yes,no,300234068445770,BD2GHI,AOML,UNKNOWN,North
2021-07-09T21:00:00Z,2021,21,0,190.875,190.875,63.632,-17.825,1017.2,12.23,-999.0,yes,yes,no,300234068445770,BD2GHI,AOML,UNKNOWN,North
2021-07-09T22:00:02Z,2021,22,0,190.9167,190.9167,63.632,-17.825,1017.2,11.52,-999.0,yes,yes,no,300234068445770,BD2GHI,AOML,UNKNOWN,North
2021-07-09T22:59:57Z,2021,23,0,190.9583,190.9583,63.632,-17.825,1017.2,11.24,-999.0,yes,yes,no,300234068445770,BD2GHI,AOML,UNKNOWN,North
2021-07-10T00:00:00Z,2021,0,0,191.0,191.0,63.631,-17.827,1017.3,10.77,-999.0,yes,yes,no,300234068445770,BD2GHI,AOML,UNKNOWN,North
2021-07-10T01:00:02Z,2021,1,0,191.0417,191.0417,63.632,-17.825,1017.2,10.41,-999.0,yes,yes,no,300234068445770,BD2GHI,AOML,UNKNOWN,North
2021-07-10T01:59:57Z,2021,2,0,191.0833,191.0833,63.632,-17.825,1017.0,9.98,-999.0,yes,yes,no,300234068445770,BD2GHI,AOML,UNKNOWN,North
2021-07-10T03:00:00Z,2021,3,0,191.125,191.125,63.632,-17.825,1016.8,10.1,-999.0,yes,yes,no,300234068445770,BD2GHI,AOML,UNKNOWN,North
2021-07-10T04:00:02Z,2021,4,0,191.1667,191.1667,63.632,-17.825,1016.7,10.08,-999.0,yes,yes,no,300234068445770,BD2GHI,AOML,UNKNOWN,North
2021-07-10T04:59:57Z,2021,5,0,191.2083,191.2083,63.632,-17.825,1016.7,10.17,-999.0,yes,yes,no,300234068445770,BD2GHI,AOML,UNKNOWN,North
2021-07-10T06:00:00Z,2021,6,0,191.25,191.25,63.632,-17.825,1016.9,11.28,-999.0,yes,yes,no,300234068445770,BD2GHI,AOML,UNKNOWN,North
2021-07-10T07:00:02Z,2021,7,0,191.2917,191.2917,63.632,-17.825,1017.0,11.39,-999.0,yes,yes,no,300234068445770,BD2GHI,AOML,UNKNOWN,North
2021-07-10T07:59:57Z,2021,8,0,191.3333,191.3333,63.632,-17.825,1016.9,13.15,-999.0,yes,yes,no,300234068445770,BD2GHI,AOML,UNKNOWN,North
2021-07-10T09:00:00Z,2021,9,0,191.375,191.375,63.632,-17.825,1016.9,13.92,-999.0,yes,yes,no,300234068445770,BD2GHI,AOML,UNKNOWN,North
2021-07-10T10:00:02Z,2021,10,0,191.4167,191.4167,63.632,-17.825,1016.8,17.06,-999.0,yes,yes,no,300234068445770,BD2GHI,AOML,UNKNOWN,North
2021-07-10T10:59:57Z,2021,11,0,191.4583,191.4583,63.632,-17.824,1017.1,16.24,-999.0,yes,yes,no,300234068445770,BD2GHI,AOML,UNKNOWN,North
2021-07-10T12:00:00Z,2021,12,0,191.5,191.5,63.631,-17.825,1017.0,16.17,-999.0,yes,yes,no,300234068445770,BD2GHI,AOML,UNKNOWN,North
2021-07-10T13:00:02Z,2021,13,0,191.5417,191.5417,63.629,-17.822,1016.9,17.43,-999.0,yes,yes,no,300234068445770,BD2GHI,AOML,UNKNOWN,North
2021-07-10T13:59:57Z,2021,14,0,191.5833,191.5833,63.631,-17.823,1016.8,17.38,-999.0,yes,yes,no,300234068445770,BD2GHI,AOML,UNKNOWN,North
2021-07-10T15:00:00Z,2021,15,0,191.625,191.625,63.631,-17.824,1016.8,17.81,-999.0,yes,yes,no,300234068445770,BD2GHI,AOML,UNKNOWN,North
2021-07-10T16:00:02Z,2021,16,0,191.6667,191.6667,63.631,-17.825,1016.5,16.68,-999.0,yes,yes,no,300234068445770,BD2GHI,AOML,UNKNOWN,North
2021-07-10T16:59:57Z,2021,17,0,191.7083,191.7083,63.631,-17.825,1016.6,15.79,-999.0,yes,yes,no,300234068445770,BD2GHI,AOML,UNKNOWN,North
2021-07-10T18:00:00Z,2021,18,0,191.75,191.75,63.631,-17.825,1016.7,14.85,-999.0,yes,yes,no,300234068445770,BD2GHI,AOML,UNKNOWN,North
2021-07-10T19:00:02Z,2021,19,0,191.7917,191.7917,63.631,-17.825,1017.0,14.99,-999.0,yes,yes,no,300234068445770,BD2GHI,AOML,UNKNOWN,North
2021-07-10T19:59:57Z,2021,20,0,191.8333,191.8333,63.631,-17.826,1016.9,13.93,-999.0,yes,yes,no,300234068445770,BD2GHI,AOML,UNKNOWN,North
2021-07-10T21:00:00Z,2021,21,0,191.875,191.875,63.632,-17.825,1017.0,13.14,-999.0,yes,yes,no,300234068445770,BD2GHI,AOML,UNKNOWN,North
2021-07-10T22:00:02Z,2021,22,0,191.9167,191.9167,63.632,-17.826,1017.1,12.43,-999.0,yes,yes,no,300234068445770,BD2GHI,AOML,UNKNOWN,North
2021-07-10T22:59:57Z,2021,23,0,191.9583,191.9583,63.633,-17.829,1017.2,12.17,-999.0,yes,yes,no,300234068445770,BD2GHI,AOML,UNKNOWN,North
2021-07-11T00:00:00Z,2021,0,0,192.0,192.0,63.631,-17.83,1017.2,12.2,-999.0,yes,yes,no,300234068445770,BD2GHI,AOML,UNKNOWN,North
2021-07-11T01:00:02Z,2021,1,0,192.0417,192.0417,63.631,-17.826,1017.3,11.98,-999.0,yes,yes,no,300234068445770,BD2GHI,AOML,UNKNOWN,North
2021-07-11T01:59:57Z,2021,2,0,192.0833,192.0833,63.632,-17.826,1017.2,11.9,-999.0,yes,yes,no,300234068445770,BD2GHI,AOML,UNKNOWN,North
2021-07-11T03:00:00Z,2021,3,0,192.125,192.125,63.631,-17.824,1017.0,11.78,-999.0,yes,yes,no,300234068445770,BD2GHI,AOML,UNKNOWN,North
2021-07-11T04:00:02Z,2021,4,0,192.1667,192.1667,63.632,-17.825,1016.9,11.86,-999.0,yes,yes,no,300234068445770,BD2GHI,AOML,UNKNOWN,North
2021-07-11T04:59:57Z,2021,5,0,192.2083,192.2083,63.632,-17.825,1017.0,12.02,-999.0,yes,yes,no,300234068445770,BD2GHI,AOML,UNKNOWN,North
2021-07-11T06:00:00Z,2021,6,0,192.25,192.25,63.632,-17.825,1017.0,12.66,-999.0,yes,yes,no,300234068445770,BD2GHI,AOML,UNKNOWN,North
2021-07-11T07:00:02Z,2021,7,0,192.2917,192.2917,63.632,-17.825,1016.9,14.9,-999.0,yes,yes,no,300234068445770,BD2GHI,AOML,UNKNOWN,North
2021-07-11T07:59:57Z,2021,8,0,192.3333,192.3333,63.632,-17.825,1016.8,19.19,-999.0,yes,yes,no,300234068445770,BD2GHI,AOML,UNKNOWN,North
2021-07-11T09:00:00Z,2021,9,0,192.375,192.375,63.632,-17.825,1016.7,17.11,-999.0,yes,yes,no,300234068445770,BD2GHI,AOML,UNKNOWN,North
2021-07-11T10:00:02Z,2021,10,0,192.4167,192.4167,63.632,-17.825,1017.0,15.23,-999.0,yes,yes,no,300234068445770,BD2GHI,AOML,UNKNOWN,North
2021-07-11T10:59:57Z,2021,11,0,192.4583,192.4583,63.632,-17.824,1016.9,17.97,-999.0,yes,yes,no,300234068445770,BD2GHI,AOML,UNKNOWN,North
2021-07-11T12:00:00Z,2021,12,0,192.5,192.5,63.632,-17.825,1016.7,18.97,-999.0,yes,yes,no,300234068445770,BD2GHI,AOML,UNKNOWN,North
2021-07-11T13:00:02Z,2021,13,0,192.5417,192.5417,63.632,-17.825,1016.5,20.44,-999.0,yes,yes,no,300234068445770,BD2GHI,AOML,UNKNOWN,North
2021-07-11T13:59:57Z,2021,14,0,192.5833,192.5833,63.631,-17.825,1016.4,20.5,-999.0,yes,yes,no,300234068445770,BD2GHI,AOML,UNKNOWN,North
2021-07-11T15:00:00Z,2021,15,0,192.625,192.625,63.63,-17.825,1015.8,19.95,-999.0,yes,yes,no,300234068445770,BD2GHI,AOML,UNKNOWN,North
2021-07-11T16:00:02Z,2021,16,0,192.6667,192.6667,63.632,-17.825,1015.5,19.46,-999.0,yes,yes,no,300234068445770,BD2GHI,AOML,UNKNOWN,North
2021-07-11T16:59:57Z,2021,17,0,192.7083,192.7083,63.632,-17.825,1015.3,18.02,-999.0,yes,yes,no,300234068445770,BD2GHI,AOML,UNKNOWN,North
2021-07-11T18:00:00Z,2021,18,0,192.75,192.75,63.632,-17.825,1015.2,16.94,-999.0,yes,yes,no,300234068445770,BD2GHI,AOML,UNKNOWN,North
2021-07-11T19:00:02Z,2021,19,0,192.7917,192.7917,63.632,-17.825,1015.1,15.63,-999.0,yes,yes,no,300234068445770,BD2GHI,AOML,UNKNOWN,North
2021-07-11T19:59:57Z,2021,20,0,192.8333,192.8333,63.631,-17.827,1014.8,14.79,-999.0,yes,yes,no,300234068445770,BD2GHI,AOML,UNKNOWN,North
2021-07-11T21:00:00Z,2021,21,0,192.875,192.875,63.631,-17.825,1014.7,14.99,-999.0,yes,yes,no,300234068445770,BD2GHI,AOML,UNKNOWN,North
2021-07-11T22:00:02Z,2021,22,0,192.9167,192.9167,63.632,-17.825,1014.6,13.71,-999.0,yes,yes,no,300234068445770,BD2GHI,AOML,UNKNOWN,North
2021-07-11T22:59:57Z,2021,23,0,192.9583,192.9583,63.632,-17.825,1014.4,11.6,-999.0,yes,yes,no,300234068445770,BD2GHI,AOML,UNKNOWN,North
2021-07-12T00:00:00Z,2021,0,0,193.0,193.0,63.632,-17.825,1014.2,10.75,-999.0,yes,yes,no,300234068445770,BD2GHI,AOML,UNKNOWN,North
2021-07-12T01:00:02Z,2021,1,0,193.0417,193.0417,63.632,-17.825,1013.9,9.62,-999.0,yes,yes,no,300234068445770,BD2GHI,AOML,UNKNOWN,North
2021-07-12T01:59:57Z,2021,2,0,193.0833,193.0833,63.631,-17.825,1013.7,10.4,-999.0,yes,yes,no,300234068445770,BD2GHI,AOML,UNKNOWN,North
2021-07-12T03:00:00Z,2021,3,0,193.125,193.125,63.631,-17.823,1013.5,10.43,-999.0,yes,yes,no,300234068445770,BD2GHI,AOML,UNKNOWN,North
2021-07-12T04:00:02Z,2021,4,0,193.1667,193.1667,63.632,-17.825,1013.3,10.64,-999.0,yes,yes,no,300234068445770,BD2GHI,AOML,UNKNOWN,North
2021-07-12T06:00:00Z,2021,6,0,193.25,193.25,63.632,-17.825,1012.9,11.0,-999.0,yes,yes,no,300234068445770,BD2GHI,AOML,UNKNOWN,North
2021-07-12T07:00:02Z,2021,7,0,193.2917,193.2917,63.632,-17.825,1012.5,13.9,-999.0,yes,yes,no,300234068445770,BD2GHI,AOML,UNKNOWN,North
2021-07-12T07:59:57Z,2021,8,0,193.3333,193.3333,63.632,-17.825,1012.9,16.77,-999.0,yes,yes,no,300234068445770,BD2GHI,AOML,UNKNOWN,North
2021-07-12T09:00:00Z,2021,9,0,193.375,193.375,63.632,-17.825,1012.8,13.83,-999.0,yes,yes,no,300234068445770,BD2GHI,AOML,UNKNOWN,North
2021-07-12T10:00:02Z,2021,10,0,193.4167,193.4167,63.632,-17.824,1012.6,13.84,-999.0,yes,yes,no,300234068445770,BD2GHI,AOML,UNKNOWN,North
2021-07-12T10:59:57Z,2021,11,0,193.4583,193.4583,63.631,-17.825,1012.5,14.45,-999.0,yes,yes,no,300234068445770,BD2GHI,AOML,UNKNOWN,North
2021-07-12T12:00:00Z,2021,12,0,193.5,193.5,63.632,-17.825,1012.3,12.59,-999.0,yes,yes,no,300234068445770,BD2GHI,AOML,UNKNOWN,North
2021-07-12T13:00:02Z,2021,13,0,193.5417,193.5417,63.632,-17.824,1012.0,12.03,-999.0,yes,yes,no,300234068445770,BD2GHI,AOML,UNKNOWN,North
2021-07-12T13:59:57Z,2021,14,0,193.5833,193.5833,63.63,-17.824,1011.6,12.0,-999.0,yes,yes,no,300234068445770,BD2GHI,AOML,UNKNOWN,North
2021-07-12T15:00:00Z,2021,15,0,193.625,193.625,63.632,-17.825,1011.2,12.02,-999.0,yes,yes,no,300234068445770,BD2GHI,AOML,UNKNOWN,North
2021-07-12T16:00:02Z,2021,16,0,193.6667,193.6667,63.632,-17.825,1011.0,12.49,-999.0,yes,yes,no,300234068445770,BD2GHI,AOML,UNKNOWN,North
2021-07-12T16:59:57Z,2021,17,0,193.7083,193.7083,63.632,-17.825,1010.7,12.48,-999.0,yes,yes,no,300234068445770,BD2GHI,AOML,UNKNOWN,North
2021-07-12T18:00:00Z,2021,18,0,193.75,193.75,63.632,-17.825,1010.6,12.21,-999.0,yes,yes,no,300234068445770,BD2GHI,AOML,UNKNOWN,North
2021-07-12T19:00:02Z,2021,19,0,193.7917,193.7917,63.632,-17.825,1010.7,12.24,-999.0,yes,yes,no,300234068445770,BD2GHI,AOML,UNKNOWN,North
2021-07-12T19:59:57Z,2021,20,0,193.8333,193.8333,63.632,-17.825,1010.6,11.49,-999.0,yes,yes,no,300234068445770,BD2GHI,AOML,UNKNOWN,North
2021-07-12T21:00:00Z,2021,21,0,193.875,193.875,63.632,-17.825,1010.4,11.18,-999.0,yes,yes,no,300234068445770,BD2GHI,AOML,UNKNOWN,North
2021-07-12T22:00:02Z,2021,22,0,193.9167,193.9167,63.631,-17.825,1010.3,11.36,-999.0,yes,yes,no,300234068445770,BD2GHI,AOML,UNKNOWN,North
2021-07-12T22:59:57Z,2021,23,0,193.9583,193.9583,63.631,-17.825,1010.3,11.38,-999.0,yes,yes,no,300234068445770,BD2GHI,AOML,UNKNOWN,North
2021-07-13T00:00:00Z,2021,0,0,194.0,194.0,63.631,-17.825,1010.1,11.46,-999.0,yes,yes,no,300234068445770,BD2GHI,AOML,UNKNOWN,North
2021-07-13T01:00:02Z,2021,1,0,194.0417,194.0417,63.631,-17.825,1010.1,11.19,-999.0,yes,yes,no,300234068445770,BD2GHI,AOML,UNKNOWN,North
2021-07-13T01:59:57Z,2021,2,0,194.0833,194.0833,63.632,-17.824,1010.4,10.81,-999.0,yes,yes,no,300234068445770,BD2GHI,AOML,UNKNOWN,North
2021-07-13T03:00:00Z,2021,3,0,194.125,194.125,63.632,-17.825,1010.6,9.99,-999.0,yes,yes,no,300234068445770,BD2GHI,AOML,UNKNOWN,North
2021-07-13T04:00:02Z,2021,4,0,194.1667,194.1667,63.632,-17.825,1010.6,9.85,-999.0,yes,yes,no,300234068445770,BD2GHI,AOML,UNKNOWN,North
2021-07-13T04:59:57Z,2021,5,0,194.2083,194.2083,63.632,-17.825,1010.6,10.45,-999.0,yes,yes,no,300234068445770,BD2GHI,AOML,UNKNOWN,North
2021-07-13T06:00:00Z,2021,6,0,194.25,194.25,63.632,-17.824,1010.3,11.55,-999.0,yes,yes,no,300234068445770,BD2GHI,AOML,UNKNOWN,North
2021-07-13T07:00:02Z,2021,7,0,194.2917,194.2917,63.631,-17.823,1010.9,12.73,-999.0,yes,yes,no,300234068445770,BD2GHI,AOML,UNKNOWN,North
2021-07-13T07:59:57Z,2021,8,0,194.3333,194.3333,63.63,-17.825,1011.4,14.41,-999.0,yes,yes,no,300234068445770,BD2GHI,AOML,UNKNOWN,North
2021-07-13T09:00:00Z,2021,9,0,194.375,194.375,63.632,-17.825,1011.9,12.86,-999.0,yes,yes,no,300234068445770,BD2GHI,AOML,UNKNOWN,North
2021-07-13T10:00:02Z,2021,10,0,194.4167,194.4167,63.632,-17.825,1011.6,13.12,-999.0,yes,yes,no,300234068445770,BD2GHI,AOML,UNKNOWN,North
2021-07-13T10:59:57Z,2021,11,0,194.4583,194.4583,63.632,-17.825,1011.8,13.21,-999.0,yes,yes,no,300234068445770,BD2GHI,AOML,UNKNOWN,North
2021-07-13T12:00:00Z,2021,12,0,194.5,194.5,63.631,-17.822,1011.9,17.15,-999.0,yes,yes,no,300234068445770,BD2GHI,AOML,UNKNOWN,North
2021-07-13T13:00:02Z,2021,13,0,194.5417,194.5417,63.631,-17.823,1012.1,16.07,-999.0,yes,yes,no,300234068445770,BD2GHI,AOML,UNKNOWN,North
2021-07-13T13:59:57Z,2021,14,0,194.5833,194.5833,63.632,-17.825,1012.3,14.14,-999.0,yes,yes,no,300234068445770,BD2GHI,AOML,UNKNOWN,North
2021-07-13T15:00:00Z,2021,15,0,194.625,194.625,63.632,-17.825,1012.2,15.98,-999.0,yes,yes,no,300234068445770,BD2GHI,AOML,UNKNOWN,North
2021-07-13T16:00:02Z,2021,16,0,194.6667,194.6667,63.632,-17.825,1011.9,14.87,-999.0,yes,yes,no,300234068445770,BD2GHI,AOML,UNKNOWN,North
2021-07-13T16:59:57Z,2021,17,0,194.7083,194.7083,63.632,-17.825,1011.9,13.79,-999.0,yes,yes,no,300234068445770,BD2GHI,AOML,UNKNOWN,North
2021-07-13T18:00:00Z,2021,18,0,194.75,194.75,63.632,-17.824,1011.6,14.73,-999.0,yes,yes,no,300234068445770,BD2GHI,AOML,UNKNOWN,North
2021-07-13T19:00:02Z,2021,19,0,194.7917,194.7917,63.631,-17.825,1011.7,13.99,-999.0,yes,yes,no,300234068445770,BD2GHI,AOML,UNKNOWN,North
2021-07-13T19:59:57Z,2021,20,0,194.8333,194.8333,63.631,-17.825,1011.8,13.24,-999.0,yes,yes,no,300234068445770,BD2GHI,AOML,UNKNOWN,North
2021-07-13T21:00:00Z,2021,21,0,194.875,194.875,63.632,-17.825,1012.0,11.57,-999.0,yes,yes,no,300234068445770,BD2GHI,AOML,UNKNOWN,North
2021-07-13T22:00:02Z,2021,22,0,194.9167,194.9167,63.631,-17.825,1011.7,11.23,-999.0,yes,yes,no,300234068445770,BD2GHI,AOML,UNKNOWN,North
2021-07-13T22:59:57Z,2021,23,0,194.9583,194.9583,63.632,-17.825,1010.9,10.72,-999.0,yes,yes,no,300234068445770,BD2GHI,AOML,UNKNOWN,North
2021-07-14T00:00:00Z,2021,0,0,195.0,195.0,63.632,-17.825,1010.7,10.51,-999.0,yes,yes,no,300234068445770,BD2GHI,AOML,UNKNOWN,North
2021-07-14T01:00:02Z,2021,1,0,195.0417,195.0417,63.632,-17.825,1010.4,9.91,-999.0,yes,yes,no,300234068445770,BD2GHI,AOML,UNKNOWN,North